Regional Weather Roundup
Issued by NWS

Home | Current Version | Previous Version | Graphics & Text | Print | Product List | Glossary On
Versions: 1 2 3 4 5 6 7 8 9 10 11 12 13 14 15 16 17 18 19 20 21 22 23 24 25 26 27 28 29 30 31 32 33 34 35 36 37 38 39 40 41 42 43 44 45 46 47 48 49 50
000
ASUS43 KIND 222209
RWRIN

WEATHER ROUNDUP FOR INDIANA
NATIONAL WEATHER SERVICE INDIANAPOLIS IN
500 PM EST MON JAN 22 2018

NOTE: "FAIR" INDICATES FEW OR NO CLOUDS BELOW 12,000 FEET WITH NO
SIGNIFICANT WEATHER AND/OR OBSTRUCTIONS TO VISIBILITY.

* - STATION DOES NOT REPORT WEATHER SUCH AS PRECIPITATION OR FOG.

+ - STATION NOT QUALITY CONTROLLED BY THE NATIONAL WEATHER SERVICE.
    USE DATA WITH CAUTION...ESPECIALLY DEWPOINT AND RELATIVE
    HUMIDITY OBSERVATIONS.

INZ001>003-010>013-019-020-222300-
NORTHWEST INDIANA

CITY           SKY/WX    TMP DP  RH WIND       PRES   REMARKS
GARY /AIRPORT/ MOCLDY    55  46  71 S14       29.47F
KNOX *+        CLOUDY    52  48  87 S20G28    29.51F
LA PORTE +     CLOUDY    50  47  90 S10G16    29.51F
MICHIGAN CITY+ MOCLDY    52  48  87 S9        29.50F
MONTICELLO +   FAIR      52  49  90 S13       29.50F
RENSSELAER +   FAIR      52  45  76 S14G20    29.50S
VALPARAISO     MOCLDY    53  48  83 MISG      29.50F

$$

LMZ046-743>745-222300-
SOUTHERN LAKE MICHIGAN

STATION/POSITION TIME  TEMP    WIND        PRES    WAVE
                       AIR SEA DIR/SP/G            HT
                 (UTC) (F)     (DEG/KT/KT) (MB)    (FT)
BURNS HARBOR     2140   53     190/ 18/ 23  999.0F
MICHIGAN CITY    2140   52     170/ 16/ 20   N/A

$$

INZ004-005-014>016-021>024-222300-
NORTH CENTRAL INDIANA

CITY           SKY/WX    TMP DP  RH WIND       PRES   REMARKS
ELKHART        DRIZZLE   50  48  93 S7G17     29.54S FOG
GOSHEN         LGT RAIN  51  48  89 S16       29.55R FOG
LOGANSPORT +   MOCLDY    50  48  93 S12G18    29.55F
PERU/GRISSOM   MOCLDY    52  52 100 S13       29.56R
ROCHESTER +    LGT RAIN  52  50  93 S13       29.55S
SOUTH BEND     LGT RAIN  50  48  93 S16       29.53F
WARSAW +       LGT RAIN  50  48  93 S7        29.55F

$$

INZ006>009-017-018-025>027-222300-
NORTHEAST INDIANA

CITY           SKY/WX    TMP DP  RH WIND       PRES   REMARKS
AUBURN +       CLOUDY   N/A N/A N/A S10G20    29.58S
FORT WAYNE     CLOUDY    54  49  83 S18       29.58S
HUNTINGTON +   CLOUDY    53  49  88 S12G23    29.58R
KENDALLVILLE +   N/A     51  49  90 S22G32    29.57R

$$

INZ028-029-035-036-043>045-051>053-222300-
WEST CENTRAL INDIANA

CITY           SKY/WX    TMP DP  RH WIND       PRES   REMARKS
CRAWFORDSVL +  CLOUDY    51  50  95 MISG      29.53F
GREENCASTLE +  CLOUDY    54  45  71 S12G23    29.55F
LAFAYETTE      FAIR      53  49  86 S13G21    29.51S
TERRE HAUTE    FAIR      55  48  77 S18       29.52F

$$

INZ030>032-037>040-046>048-054>057-064-065-222300-
CENTRAL INDIANA

CITY           SKY/WX    TMP DP  RH WIND       PRES   REMARKS
COLUMBUS       CLOUDY    52  48  87 S16G23    29.62R
FISHERS *+     CLOUDY    50  50 100 S9        29.58S
FRANKFORT +    FAIR      54  51  87 S7        29.55F
INDIANAPOLIS   MOCLDY    54  49  83 S16       29.57F
-EAGLE CREEK   CLOUDY    54  48  80 S8G17     29.56F
MARION +       CLOUDY    51  48  89 S20       29.59S
MT COMFORT *+  CLOUDY    52  52 100 S15G23    29.59F
SHELBYVILLE    NOT AVBL
ZIONSVILLE +   CLOUDY    51  48  89 S14       29.57F

$$

INZ033-034-041-042-049-050-058-059-222300-
EAST CENTRAL INDIANA

CITY           SKY/WX    TMP DP  RH WIND       PRES   REMARKS
MUNCIE         CLOUDY    55  48  77 S15G25    29.59S
RICHMOND +     CLOUDY    50  46  87 S21       29.64F

$$

INZ060-061-067>069-081>083-085>088-222300-
SOUTHWEST INDIANA

CITY           SKY/WX    TMP DP  RH WIND       PRES   REMARKS
EVANSVILLE     FAIR      59  50  72 S16G28    29.58S
HUNTINGBURG +  MOCLDY    55  52  88 S16G22    29.60F
WASHINGTON +   CLOUDY    55  48  75 S17G25    29.57S

$$

INZ062-063-066-070>080-084-089>092-222300-
SOUTH CENTRAL AND SOUTHEAST INDIANA

CITY           SKY/WX    TMP DP  RH WIND       PRES   REMARKS
BATESVILLE *+    N/A    N/A N/A N/A MISG        N/A
BEDFORD +      MOCLDY    55  48  76 S14G23    29.60
BLOOMINGTON    CLOUDY    55  48  77 S16G25    29.57F
FRENCH LICK *+ CLOUDY    55  50  82 S10G21    29.60F
MADISON *+     CLOUDY    55  50  82 S13G18    29.65F
NORTH VERNON + CLOUDY    54  48  82 S13G25    29.63F
SEYMOUR +      CLOUDY    55  48  76 S8        29.63

$$





USA.gov is the U.S. government's official web portal to all federal, state and local government web resources and services.